Jackpot

Texas Poker Multi Jackpot System

Kini Telah hadir Jackpot SUPER ROYAL FLUSH

Kini Telah hadir Jackpot 2000 (khusus table VIP keatas).

Ikutilah global jackpot yang tersedia di system kami, dengan system jackpot terbaru dan pertama di indonesia, anda dapat membeli jackpot dengan harga 100 rupiah saja dan menangkan hadiahnya hingga puluhan juta rupiah.

Jackpot bukanlah suatu keharusan untuk dibeli, namun kami memberikan suatu fitur tambahan untuk member tercinta dari www.mtwpoker.com.

Terdapat tiga pilihan harga jackpot yang bisa anda beli yaitu :100,500,1000 dan 2000(khusus table VIP Keatas) rupiah.

Hadiah dari Multi jackpot system www.mtwpoker.com

  1. full house x 10 harga jackpot yang anda beli.
      (contoh:anda membeli 1000 maka:1000 X10 = 10.000)
  2. four of kind x 250 harga jackpot yang anda beli
      (contoh:anda membeli 1000 maka:1000 X250 = 250.000)
  3. Straight flush x 1200
      (contoh:anda membeli 1000 maka:1000 X1200 = 1.200.000)
  4. Royal flush x 10000 harga jackpot yang anda beli
      (contoh:anda membeli 1000 maka:1000 X10000 = 10.000.000)
  5. SUPER ROYAL FLUSH x 30000 harga jackpot yang anda beli
      (contoh:anda membeli 1000 maka:1000 X30000 = 30.000.000)

Kondisi kartu

  1. full house adalah kondisi kartu dimana kartu anda dan kartu tengah dengan total 7 kartu bisa mendapatkan nilai 5 kartu dengan kombinasi 1 tris(three of kind) dan 1 pair, contoh 3 kartu 10 dan 2 kartu 5
  2. Four of kind adalah kondisi kartu dimana kartu anda dan kartu tengah dengan total 7 kartu bisa mendapatkan nilai 5 kartu dengan kombinasi 4 kartu yang sama jumlah dan 1 kartu apapun juga contoh anda mendapatkan 4 buah kartu angka 3 dan 1 kartu apapun.
  3. Staright flush adalah kondisi kartu dimana kartu anda dan kartu tengah dengan total 7 kartu bisa mendapatkan nilai 5 kartu dengan kombinasi seri / staright dengan kembang yang sama contoh : urutan kartu dari angka 5, 6, 7, 8 , 9 10 dengan kembang yg sama misalnya as hati
  4. Royal flush adalah kondisi kartu dimana kartu anda dan kartu tengah dengan total 7 kartu bisa mendapatkan nilai 5 kartu dengan kombinasi seri / staright dengan kembang yang sama tetapi kartu tersebut haruslah dimulai dari 10. contoh 10, Queen, Jack, King dan aces dengan kembang yang sama
  5. Super Royal flush adalah kondisi kartu dimana Kedua kartu anda digabung dengan 3 kartu pertama meja haruslah royal flush. contoh kartu anda 10,Queen kembang sama dan 3 kartu pertama meja adalah Jack, King dan aces dengan kembang yang sama

Demikian adalah penjelasan dari Multi Jackpot www.mtwpoker.com terima kasih dan selamat bermain salam hoki dari kami

Texas Poker Jackpot Winner

TOP SUPER ROYAL FLUSH
No.TanggalNamaPriceWin
127/05 23:11SINCE2008Super Royal flush15,000,000
227/05 22:21CHUNI7Super Royal flush30,000,000
327/05 17:39MCA345Super Royal flush1,500,000
427/05 17:15MAKMUR1968Super Royal flush6,000,000
527/05 12:13DILAN00Super Royal flush6,000,000
TOP ROYAL FLUSH
No.TanggalNamaPriceWin
128/05 00:47MOHARASRoyal flush2,000,000
228/05 00:43C6026637Royal flush1,000,000
328/05 00:39MUSTHART33Royal flush10,000,000
428/05 00:38BUKA_SAJARoyal flush5,000,000
528/05 00:36LILIK369Royal flush2,000,000
TOP STRAIGHT FLUSH
No.TanggalNamaPriceWin
128/05 00:47SADAMZStraight Flush120,000
228/05 00:47RIRIS11_Straight Flush240,000
328/05 00:45SNI42013Straight Flush1,200,000
428/05 00:43KOKE6789Straight Flush240,000
528/05 00:43SIKEBENStraight Flush600,000
LATEST JACKPOT
No.TanggalNamaPriceWin
128/05 00:48G0CAPTIAWFull House5,000
228/05 00:48DONI06Full House1,000
328/05 00:48XYDMSX909Full House2,000
428/05 00:48VIOLLAAFull House500
528/05 00:48ES1212Full House10,000
628/05 00:48RIZAL1122Full House2,000
728/05 00:48BETA881Full House5,000
828/05 00:48MATO_ANGFull House5,000
928/05 00:48TKUR21Full House2,000
1028/05 00:48INTANHOKYFull House2,000
1128/05 00:48MEYMEY13Full House5,000
1228/05 00:48RICIEEFull House10,000
1328/05 00:48RINDU1BUFull House2,000
1428/05 00:48RAJAJIN02Full House5,000
1528/05 00:48MDRJABLAY88Full House2,000
1628/05 00:48PRASOMAN82Full House5,000
1728/05 00:48AMBON1427Full House5,000
1828/05 00:48BARADANFull House2,000
1928/05 00:48CIACIULFull House1,000
2028/05 00:48BABIMALUFull House1,000
2128/05 00:48GAMSUUFull House5,000
2228/05 00:48A88C7DE6Full House2,000
2328/05 00:48BRENTEX1Full House2,000
2428/05 00:48RULLES99Full House10,000
2528/05 00:48SYAHPUTARFull House5,000
2628/05 00:48K3K3Y888Full House2,000
2728/05 00:48TRANSAKSI0Full House5,000
2828/05 00:48ASJACK14Four Of A Kind125,000
2928/05 00:48NOVHE99Full House5,000
3028/05 00:48AAPHAHAP21Full House5,000
3128/05 00:48TAYFAKFull House5,000
3228/05 00:48X_SIMERFull House2,000
3328/05 00:48BUYAKAYOFull House2,000
3428/05 00:48TEMPIK01Four Of A Kind50,000
3528/05 00:48E54D212FFull House2,000
3628/05 00:48DESI74Full House2,000
3728/05 00:48PMKEZ43OGBFull House5,000
3828/05 00:48KUDIL939Full House10,000
3928/05 00:48DADAB99Full House5,000
4028/05 00:48T1G3RCO1Full House5,000
4128/05 00:48FATIH83Full House10,000
4228/05 00:48MYBESTPKRFull House2,000
4328/05 00:48BAYUSENOFull House5,000
4428/05 00:48PISCES_01Full House5,000
4528/05 00:48DIAJENG28Full House5,000
4628/05 00:48ELGIO1603Full House1,000
4728/05 00:48H1R9S69Full House2,000
4828/05 00:48SILVIHER18Full House5,000
4928/05 00:48B1C11D47Full House2,000
5028/05 00:48XU3KFIKRL9Full House2,000

Domino Multi Jackpot System

Ikutilah global jackpot yang tersedia di system kami, dengan system jackpot terbaru dan pertama di indonesia, anda dapat membeli jackpot dengan harga 100 rupiah saja dan menangkan hadiahnya hingga puluhan juta rupiah.

Jackpot bukanlah suatu keharusan untuk dibeli, namun kami memberikan suatu fitur tambahan untuk member tercinta dari www.mtwpoker.com.

Terdapat tiga pilihan harga jackpot yang bisa anda beli yaitu :100,500 dan 1000 rupiah.

Hadiah dari Multi jackpot system www.mtwpoker.com

  1. Murni Kecil x 50 harga jackpot yang anda beli.
      (contoh:anda membeli 1000 maka:1000 X 50 = 50.000)
  2. Murni Besar x 50 harga jackpot yang anda beli
      (contoh:anda membeli 1000 maka:1000 X 50 = 50.000)
  3. BALAK x 100 harga jackpot yang anda beli
      (contoh:anda membeli 1000 maka:1000 X 100 = 100.000)
  4. ENAM DEWA x 6666 harga jackpot yang anda beli
      (contoh:anda membeli 1000 maka:1000 X 6666 = 6.666.000)

Demikian adalah penjelasan dari Multi Jackpot www.mtwpoker.com terima kasih dan selamat bermain salam hoki dari kami

Domino Jackpot Winner

TOP ENAM DEWA
No.TanggalNamaPriceWin
128/05 00:15LA_QIUmurni enam666,600
227/05 22:35R4D099murni enam666,600
327/05 20:34HENI2905murni enam6,666,000
427/05 20:23WIZNHU90murni enam6,666,000
527/05 17:22TIREN24murni enam6,666,000
TOP BALAK
No.TanggalNamaPriceWin
128/05 00:48YOKOW1Nbalak100,000
228/05 00:45JOYOROYO99balak50,000
328/05 00:44ASYRAF2014balak100,000
428/05 00:41MIOIRENG17balak50,000
528/05 00:39QQAPRIYANIbalak100,000
LATEST JACKPOT
No.TanggalNamaPriceWin
128/05 00:48KRIWOELmurni besar25,000
228/05 00:48WAKNINmurni kecil5,000
328/05 00:48YOKOW1Nbalak100,000
428/05 00:48DODI891murni besar50,000
528/05 00:47MELON88murni besar25,000
628/05 00:46WISNURM10murni besar5,000
728/05 00:45JOYOROYO99balak50,000
828/05 00:45ARJUN151murni kecil25,000
928/05 00:45LB991665murni besar5,000
1028/05 00:44ASYRAF2014balak100,000
1128/05 00:44FRIDERWINTmurni kecil50,000
1228/05 00:43PI456murni kecil50,000
1328/05 00:43AMBROZIImurni kecil50,000
1428/05 00:43PITU_88murni kecil50,000
1528/05 00:42TOING46murni besar50,000
1628/05 00:41MIOIRENG17balak50,000
1728/05 00:41SEMENEWmurni besar25,000
1828/05 00:41JONBUT22murni besar25,000
1928/05 00:41MALIING09murni besar50,000
2028/05 00:40MUSI9999murni kecil50,000
2128/05 00:40BIRAKKKmurni besar50,000
2228/05 00:39QQAPRIYANIbalak100,000
2328/05 00:39JAWA44murni kecil25,000
2428/05 00:39B0YSEXXbalak50,000
2528/05 00:38BUNDAA757murni besar25,000
2628/05 00:37TARAUPmurni kecil50,000
2728/05 00:37MAMII9191balak100,000
2828/05 00:37DN4DNIA20murni besar25,000
2928/05 00:37DHAMALENObalak100,000
3028/05 00:36MANAWI89murni kecil25,000
3128/05 00:36IMELDA727murni kecil50,000
3228/05 00:36G33MB33LLmurni kecil25,000
3328/05 00:35LIMPUNG89murni besar50,000
3428/05 00:35CULA89murni kecil5,000
3528/05 00:35JETRAmurni besar50,000
3628/05 00:35TSALAMA71murni besar25,000
3728/05 00:35JAH86murni besar50,000
3828/05 00:35FILENmurni kecil25,000
3928/05 00:35R139murni besar25,000
4028/05 00:34SANDEMINmurni besar5,000
4128/05 00:34NGEKEK46murni kecil25,000
4228/05 00:34ABAK09murni besar5,000
4328/05 00:33LA_QIUmurni besar5,000
4428/05 00:33SLFIbalak100,000
4528/05 00:32BETARU57murni besar25,000
4628/05 00:32G4R46666murni besar25,000
4728/05 00:32C87DY240murni besar5,000
4828/05 00:32MRJHONOmurni kecil5,000
4928/05 00:31MUKLAS17murni besar50,000
5028/05 00:31K3QNTADQ53balak100,000

Ceme Multi Jackpot System

Jackpot dilihat dari gabungan kartu pemain dengan kartu bandar. Bandar harus membeli jackpot sebanyak jumlah player yang sedang duduk. Sebagai contoh bila terdapat 3 pemain duduk bermain, dan bandar memutuskan untuk membeli jackpot Rp 1.000, maka pada periode tersebut bandar akan membeli jackpot sebanyak 3xRp1.000 = Rp3.000.

Jackpot bukanlah suatu keharusan untuk dibeli, namun kami memberikan suatu fitur tambahan untuk member tercinta dari www.mtwpoker.com.

Terdapat tiga pilihan harga jackpot yang bisa anda beli yaitu :100,500 dan 1000 rupiah.

Hadiah dari Multi jackpot system www.mtwpoker.com

  1. Murni Kecil x 50 harga jackpot yang anda beli.
      (contoh:anda membeli 1000 maka:1000 X 50 = 50.000)
  2. Murni Besar x 50 harga jackpot yang anda beli
      (contoh:anda membeli 1000 maka:1000 X 50 = 50.000)
  3. BALAK x 200 harga jackpot yang anda beli
      (contoh:anda membeli 1000 maka:1000 X 200 = 200.000)
  4. ENAM DEWA x 6666 harga jackpot yang anda beli
      (contoh:anda membeli 1000 maka:1000 X 6666 = 6.666.000)

Demikian adalah penjelasan dari Multi Jackpot www.mtwpoker.com terima kasih dan selamat bermain salam hoki dari kami

Ceme Jackpot Winner

TOP ENAM DEWA
No.TanggalNamaPriceWin
128/05 00:39NGOBRENG33murni enam6,666,000
228/05 00:36WAKYETmurni enam666,600
328/05 00:20MEI2018murni enam3,333,000
428/05 00:20R0J4K007murni enam666,600
528/05 00:04YOMANN89murni enam666,600
TOP BALAK
No.TanggalNamaPriceWin
128/05 00:48ROYD044balak20,000
228/05 00:47M5WATH339Cbalak200,000
328/05 00:47POKERSTA12balak100,000
428/05 00:47KOPROT55balak200,000
528/05 00:46MARIWANAbalak200,000
LATEST JACKPOT
No.TanggalNamaPriceWin
128/05 00:48HIOSOKA77murni besar25,000
228/05 00:48CEPOTLGmurni besar50,000
328/05 00:48AWANG112murni besar25,000
428/05 00:48DEKNANUNmurni besar50,000
528/05 00:48POYANG18murni besar5,000
628/05 00:48WOMEY676murni besar50,000
728/05 00:48LOSHTOKmurni besar5,000
828/05 00:48REHAN6668murni besar5,000
928/05 00:48ROYD044balak20,000
1028/05 00:48PASOPATI55murni besar50,000
1128/05 00:48ALWAYS_UPmurni besar50,000
1228/05 00:48BRIBISA66murni kecil50,000
1328/05 00:48N4RONGGmurni kecil25,000
1428/05 00:48TRIA9murni kecil5,000
1528/05 00:48BOHAPOKmurni kecil50,000
1628/05 00:48ARIS085murni kecil50,000
1728/05 00:48POKERSAWERmurni besar50,000
1828/05 00:48WIDI868murni kecil25,000
1928/05 00:47CANON64murni kecil50,000
2028/05 00:47R0J4K007murni besar5,000
2128/05 00:47EKAMADImurni besar50,000
2228/05 00:47M5WATH339Cbalak200,000
2328/05 00:47PARNA1987murni kecil25,000
2428/05 00:47ARSENAL1011murni kecil50,000
2528/05 00:47AMSIL22murni kecil50,000
2628/05 00:47TTN23700murni kecil5,000
2728/05 00:47JAMES7311murni besar50,000
2828/05 00:47UUS899murni besar25,000
2928/05 00:47RKH77murni besar50,000
3028/05 00:47AAWLADJA18murni kecil50,000
3128/05 00:47F68B10CDmurni besar5,000
3228/05 00:47IAP06murni besar50,000
3328/05 00:47KUSBEBUmurni besar50,000
3428/05 00:47WATER1976murni kecil50,000
3528/05 00:47DMJT165murni kecil5,000
3628/05 00:47RZEKYmurni kecil5,000
3728/05 00:47GEMBROT44murni besar50,000
3828/05 00:47ALYANAmurni kecil25,000
3928/05 00:47ENOLDESIGNmurni kecil50,000
4028/05 00:47REYAN92murni kecil50,000
4128/05 00:47POKERSTA12balak100,000
4228/05 00:47KOPROT55balak200,000
4328/05 00:46MARIWANAbalak200,000
4428/05 00:46L0V319899murni kecil50,000
4528/05 00:46HARSONO16balak200,000
4628/05 00:46ALBAYI1balak200,000
4728/05 00:46PETONG_83murni kecil50,000
4828/05 00:46BUJANG460murni kecil50,000
4928/05 00:46RZEKYmurni kecil5,000
5028/05 00:46HAIL13murni kecil50,000